Location: Newark
(25.7634°N, 80.1913°W)
Time: 04:33:47
(UTC+00:00)

Envisat - Visible Passes

Search period start: 24 January 2020 00:00
Search period end: 03 February 2020 00:00
Orbit: 764 x 766 km, 98.1° (Epoch: 23 January)

Date Brightness Start Highest point End Pass type
(mag) Time Alt. Az. Time Alt. Az. Time Alt. Az.
25 Jan 6.3 00:45:02 10° WSW 00:46:38 11° W 00:48:14 10° WNW visible
25 Jan 4.8 11:19:57 10° NNE 11:24:35 36° E 11:29:12 10° SSE visible
26 Jan 5.0 00:05:16 10° SSW 00:09:41 30° W 00:14:08 10° NW visible
26 Jan 6.2 10:45:08 10° ENE 10:47:39 14° E 10:50:10 10° SE visible
26 Jan 3.2 23:27:49 10° S 23:32:53 80° WSW 23:37:58 10° NNW visible
28 Jan 6.1 00:32:18 10° SW 00:35:17 16° W 00:38:15 10° WNW visible
28 Jan 5.4 11:08:59 10° NE 11:13:15 27° E 11:17:30 10° SSE visible
28 Jan 4.5 23:53:38 10° SSW 23:58:22 40° W 00:03:08 10° NNW visible
30 Jan 4.0 11:33:50 10° NNE 11:38:47 53° E 11:43:43 10° S visible
31 Jan 5.7 00:20:11 10° SW 00:23:55 21° W 00:27:41 10° NW visible
31 Jan 5.8 10:58:12 10° NE 11:01:55 20° E 11:05:38 10° SE visible
31 Jan 3.9 23:42:08 10° S 23:47:04 54° W 23:52:02 10° NNW visible
02 Feb 4.6 11:22:44 10° NNE 11:27:29 40° E 11:32:12 10° SSE visible
